Location: Hermaringen
(48.5952°N, 10.2585°E)
Time: 20:07:23
(UTC+00:00)

Nadezhda 4 Rocket - Pass Details

Date: 18 November 2025
Orbit: 948 x 991 km, 82.9° (Epoch: 10 December)

Event Time Altitude Azimuth Distance (km) Brightness Sun altitude
Rises 16:50:00 0° 354° (N) 3,707 6.9 -12.1°
Reaches altitude 10° 16:52:40 10° 0° (N) 2,749 6.2 -12.6°
Maximum altitude 16:58:44 47° 74° (ENE) 1,268 4.2 -13.5°
Drops below altitude 10° 17:04:41 10° 148° (SSE) 2,704 6.1 -14.5°
Sets 17:07:16 0° 154° (SSE) 3,640 6.9 -14.9°
